Regional Weather Roundup
Issued by NWS Cleveland, OH

Home | Current Version | Previous Version | Text Only | Print | Product List | Glossary Off
Versions: 1 2 3 4 5 6 7 8 9 10 11 12 13 14 15 16 17 18 19 20 21 22 23 24 25 26 27 28 29 30 31 32 33 34 35 36 37 38 39 40 41 42 43 44 45 46 47 48 49 50

000
ASUS41 KCLE 260300
RWRCLE
OHIO REGIONAL WEATHER ROUNDUP
NATIONAL WEATHER SERVICE WILMINGTON, OH
1100 PM EDT TUE APR 25 2017

NOTE: "FAIR" INDICATES FEW OR NO CLOUDS BELOW 12,000 FEET WITH NO
SIGNIFICANT WEATHER AND/OR OBSTRUCTIONS TO VISIBILITY.

OHZ001>008-015>018-024>027-034-035-043-044-260400-
   NORTHWEST OHIO

CITY           SKY/WX    TMP DP  RH WIND       PRES   REMARKS
DEFIANCE       FAIR      59  53  80 E7        29.68R
FINDLAY        FAIR      66  52  60 SE8       29.69R
TOLEDO EXPRESS FAIR      57  53  86 E7        29.70R
TOLEDO EXEC    FAIR      56  53  90 E8        29.72R
LIMA           FAIR      65  54  67 SE12      29.69S
$$

OHZ009>014-019>023-028>033-038-089-260400-
   NORTHEAST OHIO

CITY           SKY/WX    TMP DP  RH WIND       PRES   REMARKS
CLE-HOPKINS    FAIR      64  53  67 SE13      29.77S
CLE-LAKEFRONT  FAIR      63  53  70 SE18G26   29.74S
CUY CO. ARPT   PTCLDY    64  55  72 SE16      29.76F
LORAIN-ELYRIA  FAIR      61  52  72 SE9       29.75S
ASHTABULA      CLOUDY    62  53  72 SE7       29.81S
AKRON-CANTON   CLOUDY    61  53  75 SE10      29.78F
WOOSTER        NOT AVBL
MANSFIELD      FAIR      61  53  75 SE10      29.75R
YOUNGSTOWN     FAIR      56  52  86 E9        29.81S
$$

OHZ042-051>053-060>062-070>072-077>081-260400-
  SOUTHWEST OHIO

CITY           SKY/WX    TMP DP  RH WIND       PRES   REMARKS
CINC-COVINGTON FAIR      62  56  80 S10       29.69F
CINC-LUNKEN    FAIR      62  60  93 S5        29.70S
HAMILTON       FAIR      68  58  70 CALM      29.69S
DAYTON         NOT AVBL
WRIGHT-PAT AFB FAIR      66  55  69 SE7       29.70R
DAYTON GENERAL FAIR      66  55  67 SE8       29.69S
WILMINGTON     FAIR      63  57  81 SE7       29.71S
$$

OHZ036-037-039>041-045>050-054>059-063>069-073>076-082>088-260400-
  CENTRAL AND SOUTHEAST OHIO

CITY           SKY/WX    TMP DP  RH WIND       PRES   REMARKS
COLUMBUS       FAIR      64  54  69 E6        29.72S
OSU AIRPORT    FAIR      63  55  75 E7        29.72S
BOLTON FIELD   NOT AVBL
RICKENBACK AFB NOT AVBL
NEWARK         FAIR      62  52  69 E7        29.74R
MARION         FAIR      63  53  70 SE9       29.73S
LANCASTER      FAIR      59  53  80 CALM      29.74R
ZANESVILLE     FAIR      61  54  77 E7        29.76R
NEW PHILLY     FAIR      60  55  83 E9        29.77F
$$



USA.gov is the U.S. government's official web portal to all federal, state and local government web resources and services.